Location: Владивосток
(43.1151°N, 131.8856°E)
Time: 18:06:01
(UTC+10:00)

SPROUT - Pass Details

Date: 06 July 2022
Orbit: 588 x 598 km, 97.9° (Epoch: 17 August)

Event Time Altitude Azimuth Distance (km) Brightness Sun altitude
Exits shadow 01:26:42 34° 89° (E) 977 ? -24.1°
Maximum altitude 01:27:15 36° 70° (ENE) 946 ? -24.1°
Drops below altitude 10° 01:31:04 10° 4° (N) 1,927 ? -24.1°
Sets 01:33:21 0° 356° (N) 2,834 ? -24.0°
